Showing default

AURORA 1, 2876

Orbit data source: Space-Track

AURORA 1, 2876 is an American payload satellite in LEO that was launched on Thu, 29 Jun 1967 UTC via a THOR BURNER 2 launch vehicle from the Air Force Western Test Range (AFWTR). Payloads include a variety of satellites, spacecraft, and rockets equipped with specific instruments for various scientific and technological missions. These include communications satellites like Starlink; space stations such as the ISS; scientific satellites like the Hubble; Earth observation satellites from companies like Planet Labs, Umbra, and HawkEye 360; GPS; miniature CubeSats for education and research; and military/defense satellites.

Loading next visibility...
AURORA 1 details
Identifier
2876, 1967-065B
Orbit
LEO
Last TLE update19 hours ago
Origin
Flag of USONR/RICE (US)
ManufacturerRice
MissionCivil Science
Bus & MotorRICE AURORA, Unknown motor
Mass21 kg wet, 21 kg dry
Launch date (UTC)
1967-06-29 (57 years ago)
Launch vehicle
THOR BURNER 2
Launch site
Air Force Western Test Range (AFWTR)
Object type
Payload
Rocket body
Debris
Shape & HBRBox, 0.6 m
Radar Cross Section0.360 m², Medium (>0.1 m² and < 1m²)

Expand to show TLE details & history

TLE from 19 hours ago
0 AURORA 1
1 02876U 67065B   24355.80180222  .00000001  00000-0 -36647-3 0  9990
2 02876  90.0154 313.4326 0071292 260.7473  98.5294  8.36560978344163
Epoch: 2024-12-20T19:14Z
Definitive object data (Epoch: 2024-12-20T19:14:35.711Z)
Latitude-0.00009°
Longitude-65.07829°
Altitude3,885.663 km
Speed6.229 km/s
True Right ascension20h 53m 43s
True Declination0° 00' 00"
Sunlit
Object was in daylight at TLE epoch
Visualization TLE readout
Latitude-61.32583°
Longitude114.89407°
Altitude3,826.43 km
Speed6.272 km/s
Apparent Right ascension05h 09m 50s
Apparent Declination-67° 08' 03"
Sunlit
Object is in daylight
Visualization observer readout
Local Sidereal Time13:25:40
Azimuth209.597° SW
Elevation-49.263°
Doppler factor1
Orbital elements
Apogee altitude3,943.087 km
Perigee altitude3,796.965 km
Semi-major axis10,248.163 km
Eccentricity0.0071292
Inclination90.0154°
RAAN313.4326°
Arg. of periapsis260.7473°
True anomaly99.33622°
Mean anomaly98.5294°
Eccentric anomaly98.93292°
Mean motion2.09206 °/min
BSTAR-0.00036647
Orbital period172.08 mins
Loading maneuver chart data...
Loading historical data...
Loading historical data...
Loading historical data...
Loading historical data...
Loading historical data...
Loading historical data...
Loading historical data...

AURORA 1 Visibility forecast

Observer location: undefined°, undefined

Span
Click to sort rows by Start time (UTC) header in descending order
Start Az.
Max El. time (UTC)
Max El. Az.
Max El.
End time (UTC)
End Az.
22 mins2024-12-21 18:27:32.866Z84.288° E2024-12-21 18:38:32.866Z48.265° ENE18.344°2024-12-21 18:49:32.866Z13.15° NNE
38 mins2024-12-21 21:05:32.866Z161.805° S2024-12-21 21:23:32.866Z86.047° E44.211°2024-12-21 21:43:32.866Z0.367° NNE
32 mins2024-12-22 00:02:32.866Z236.337° WSW2024-12-22 00:17:32.866Z290.375° WNW26.642°2024-12-22 00:34:32.866Z349.111° N
26 mins2024-12-22 06:32:32.866Z19.899° NNE2024-12-22 06:44:32.866Z60.215° ENE19.757°2024-12-22 06:58:32.866Z107.029° ESE
39 mins2024-12-22 09:21:32.866Z1.924° NNE2024-12-22 09:40:32.866Z76.085° E44.926°2024-12-22 10:00:32.866Z184.592° SSW
27 mins2024-12-22 12:14:32.866Z349.003° N2024-12-22 12:27:32.866Z305.417° NW24.25°2024-12-22 12:41:32.866Z257.099° W
|